Weather History for KOVL - February, 2013

Change the Weather History Date:

Thursday, February 21, 2013

  Actual Average Record
Temperature  
Mean Temperature 12 °F -  
Max Temperature 21 °F - - ()
Min Temperature 3 °F - - ()
Degree Days  
Heating Degree Days 53    
Moisture  
Dew Point 6 °F    
Average Humidity 72    
Maximum Humidity 79    
Minimum Humidity 67    
Precipitation  
Precipitation 0.00 in - - ()
Sea Level Pressure  
Sea Level Pressure 30.25 in    
Wind  
Wind Speed 7 mph (ENE)    
Max Wind Speed 16 mph    
Max Gust Speed 20 mph    
Visibility 10 miles    
Events      
T = Trace of Precipitation, MM = Missing Value Source: NWS Daily Summary

Daily Weather History Graph

Daily Weather History Graph

Search for Another Location

Airport or City:

Trip Planner

Search our weather history database for the weather conditions in past years. The results will help you decide how hot, cold, wet, or windy it might be!

Date:

Astronomy

Feb. 21, 2013 Rise Set
Actual Time 7:10 AM CST 5:57 PM CST
Civil Twilight 6:41 AM CST 6:27 PM CST
Nautical Twilight 6:07 AM CST 7:01 PM CST
Astronomical Twilight 5:33 AM CST 7:34 PM CST
Moon 2:06 PM CST (2/21) 4:22 AM CST (2/21)
Length of Visible Light 11h 45m
Length of Day
10h 46m
Waxing Gibbous, 84% of the Moon is Illuminated
Feb 21
Waxing Gibbous
Feb 25
Full
Mar 4
Last Quarter
Mar 11
New
Mar 19
First Quarter

Hourly Weather History & Observations

Time (CST) Temp. Windchill Dew Point Humidity Pressure Visibility Wind Dir Wind Speed Gust Speed Precip Events Conditions
12:10 AM 10.4 °F - 1.4 °F 67% 30.34 in 10.0 mi Calm Calm - N/A   Clear
12:31 AM 8.6 °F 2.0 °F -0.4 °F 67% 30.34 in 10.0 mi East 3.5 mph - N/A   Clear
12:51 AM 8.6 °F 0.1 °F 1.4 °F 73% 30.35 in 10.0 mi East 4.6 mph - N/A   Clear
1:10 AM 8.6 °F - -0.4 °F 67% 30.35 in 10.0 mi Calm Calm - N/A   Clear
1:31 AM 8.6 °F 0.1 °F -0.4 °F 67% 30.36 in 10.0 mi East 4.6 mph - N/A   Clear
1:50 AM 10.4 °F 0.8 °F 3.2 °F 73% 30.36 in 10.0 mi East 5.8 mph - N/A   Clear
2:11 AM 8.6 °F -2.6 °F 1.4 °F 73% 30.36 in 10.0 mi East 6.9 mph - N/A   Clear
2:31 AM 8.6 °F 0.1 °F 1.4 °F 73% 30.37 in 10.0 mi East 4.6 mph - N/A   Clear
2:51 AM 8.6 °F 0.1 °F 1.4 °F 73% 30.36 in 10.0 mi East 4.6 mph - N/A   Clear
3:11 AM 8.6 °F -1.3 °F 1.4 °F 73% 30.36 in 10.0 mi East 5.8 mph - N/A   Clear
3:30 AM 5.0 °F - -0.4 °F 78% 30.36 in 10.0 mi Calm Calm - N/A   Clear
3:51 AM 5.0 °F -8.1 °F -2.2 °F 72% 30.34 in 10.0 mi East 8.1 mph - N/A   Clear
4:11 AM 3.2 °F -10.3 °F -2.2 °F 78% 30.33 in 10.0 mi ENE 8.1 mph - N/A   Clear
4:30 AM 5.0 °F -9.1 °F -2.2 °F 72% 30.32 in 10.0 mi ENE 9.2 mph - N/A   Clear
4:51 AM 5.0 °F -10.0 °F -2.2 °F 72% 30.30 in 10.0 mi ENE 10.4 mph - N/A   Clear
5:11 AM 5.0 °F -10.8 °F -2.2 °F 72% 30.28 in 10.0 mi ENE 11.5 mph - N/A   Clear
5:51 AM 5.0 °F -8.1 °F -2.2 °F 72% 30.28 in 10.0 mi East 8.1 mph - N/A   Clear
6:11 AM 6.8 °F -6.9 °F -0.4 °F 72% 30.35 in 10.0 mi ESE 9.2 mph - N/A   Clear
6:30 AM 5.0 °F -6.9 °F -0.4 °F 78% 30.37 in 10.0 mi ESE 6.9 mph - N/A   Clear
6:51 AM 8.6 °F -5.5 °F 1.4 °F 73% 30.35 in 10.0 mi ESE 10.4 mph - N/A   Clear
7:11 AM 8.6 °F -3.7 °F 1.4 °F 73% 30.34 in 10.0 mi East 8.1 mph - N/A   Clear
7:31 AM 8.6 °F -4.7 °F 1.4 °F 73% 30.34 in 10.0 mi East 9.2 mph - N/A   Clear
7:51 AM 6.8 °F -6.9 °F 1.4 °F 79% 30.33 in 10.0 mi East 9.2 mph - N/A   Clear
8:10 AM 8.6 °F -6.3 °F 1.4 °F 73% 30.32 in 10.0 mi East 11.5 mph - N/A   Clear
8:31 AM 8.6 °F -5.5 °F 1.4 °F 73% 30.32 in 10.0 mi ENE 10.4 mph - N/A   Clear
8:51 AM 8.6 °F -5.5 °F 3.2 °F 79% 30.31 in 10.0 mi East 10.4 mph - N/A   Clear
9:11 AM 10.4 °F -3.3 °F 3.2 °F 73% 30.31 in 10.0 mi East 10.4 mph - N/A   Clear
9:31 AM 10.4 °F -2.4 °F 3.2 °F 73% 30.31 in 10.0 mi East 9.2 mph - N/A   Clear
9:51 AM 10.4 °F -3.3 °F 3.2 °F 73% 30.33 in 10.0 mi East 10.4 mph - N/A   Clear
10:11 AM 12.2 °F -0.2 °F 5.0 °F 73% 30.32 in 10.0 mi East 9.2 mph - N/A   Clear
10:31 AM 12.2 °F -1.8 °F 5.0 °F 73% 30.32 in 10.0 mi East 11.5 mph - N/A   Clear
10:51 AM 12.2 °F -1.0 °F 5.0 °F 73% 30.32 in 10.0 mi East 10.4 mph - N/A   Clear
11:11 AM 15.8 °F 4.2 °F 8.6 °F 73% 30.31 in 10.0 mi East 9.2 mph - N/A   Clear
11:31 AM 15.8 °F 4.2 °F 8.6 °F 73% 30.31 in 10.0 mi East 9.2 mph - N/A   Clear
11:51 AM 15.8 °F 2.1 °F 8.6 °F 73% 30.30 in 10.0 mi East 12.7 mph 16.1 mph N/A   Clear
12:11 PM 15.8 °F 3.4 °F 8.6 °F 73% 30.28 in 10.0 mi ENE 10.4 mph - N/A   Clear
12:31 PM 15.8 °F 3.4 °F 8.6 °F 73% 30.28 in 10.0 mi East 10.4 mph - N/A   Clear
12:51 PM 17.6 °F 5.7 °F 8.6 °F 68% 30.26 in 10.0 mi East 10.4 mph - N/A   Clear
1:11 PM 17.6 °F 4.3 °F 8.6 °F 68% 30.26 in 10.0 mi East 12.7 mph 16.1 mph N/A   Clear
1:31 PM 17.6 °F 5.7 °F 10.4 °F 73% 30.25 in 10.0 mi ENE 10.4 mph - N/A   Clear
1:50 PM 17.6 °F 5.7 °F 10.4 °F 73% 30.24 in 10.0 mi ENE 10.4 mph 16.1 mph N/A   Clear
2:11 PM 17.6 °F 5.0 °F 10.4 °F 73% 30.22 in 10.0 mi ENE 11.5 mph - N/A   Clear
2:31 PM 17.6 °F 3.7 °F 10.4 °F 73% 30.21 in 10.0 mi ENE 13.8 mph 18.4 mph N/A   Clear
2:50 PM 17.6 °F 2.7 °F 10.4 °F 73% 30.20 in 10.0 mi ENE 16.1 mph 19.6 mph N/A   Clear
3:11 PM 17.6 °F 4.3 °F 10.4 °F 73% 30.19 in 10.0 mi ENE 12.7 mph - N/A   Clear
3:30 PM 17.6 °F 4.3 °F 10.4 °F 73% 30.19 in 10.0 mi ENE 12.7 mph - N/A   Clear
3:51 PM 19.4 °F 8.6 °F 10.4 °F 68% 30.19 in 10.0 mi ENE 9.2 mph - N/A   Clear
4:11 PM 19.4 °F 10.4 °F 12.2 °F 74% 30.19 in 10.0 mi ENE 6.9 mph - N/A   Clear
4:30 PM 19.4 °F 8.6 °F 12.2 °F 74% 30.18 in 10.0 mi ENE 9.2 mph - N/A   Clear
4:51 PM 21.2 °F 9.5 °F 12.2 °F 68% 30.17 in 10.0 mi ENE 11.5 mph - N/A   Clear
5:11 PM 19.4 °F 7.9 °F 12.2 °F 74% 30.17 in 10.0 mi ENE 10.4 mph - N/A   Clear
5:30 PM 19.4 °F 7.9 °F 12.2 °F 74% 30.17 in 10.0 mi ENE 10.4 mph - N/A   Clear
5:51 PM 19.4 °F 7.9 °F 10.4 °F 68% 30.17 in 10.0 mi ENE 10.4 mph - N/A   Clear
6:11 PM 19.4 °F 7.9 °F 12.2 °F 74% 30.17 in 10.0 mi ENE 10.4 mph - N/A   Clear
6:30 PM 19.4 °F 7.9 °F 10.4 °F 68% 30.16 in 10.0 mi ENE 10.4 mph - N/A   Clear
6:51 PM 19.4 °F 7.9 °F 10.4 °F 68% 30.15 in 10.0 mi ENE 10.4 mph - N/A   Clear
7:10 PM 21.2 °F 8.9 °F 12.2 °F 68% 30.14 in 10.0 mi ENE 12.7 mph - N/A   Clear
7:31 PM 19.4 °F 8.6 °F 10.4 °F 68% 30.14 in 10.0 mi NE 9.2 mph - N/A   Clear
7:51 PM 19.4 °F 8.6 °F 10.4 °F 68% 30.13 in 10.0 mi NE 9.2 mph - N/A   Clear
8:10 PM 19.4 °F 7.2 °F 10.4 °F 68% 30.13 in 10.0 mi ENE 11.5 mph - N/A   Clear
8:31 PM 19.4 °F 7.9 °F 10.4 °F 68% 30.12 in 10.0 mi ENE 10.4 mph - N/A   Clear
8:51 PM 19.4 °F 7.2 °F 12.2 °F 74% 30.11 in 10.0 mi ENE 11.5 mph - N/A   Clear
9:10 PM 19.4 °F 6.0 °F 12.2 °F 74% 30.10 in 10.0 mi ENE 13.8 mph - N/A   Clear
9:31 PM 21.2 °F 7.8 °F 12.2 °F 68% 30.09 in 10.0 mi ENE 15.0 mph - N/A   Clear
9:51 PM 21.2 °F 10.1 °F 12.2 °F 68% 30.08 in 10.0 mi ENE 10.4 mph - N/A   Clear
10:10 PM 21.2 °F 11.7 °F 12.2 °F 68% 30.08 in 10.0 mi ENE 8.1 mph - N/A   Clear
10:31 PM 21.2 °F 12.6 °F 12.2 °F 68% 30.08 in 10.0 mi ENE 6.9 mph - N/A   Clear
10:51 PM 21.2 °F 10.1 °F 12.2 °F 68% 30.06 in 10.0 mi ENE 10.4 mph - N/A   Clear
11:10 PM 21.2 °F 10.9 °F 14.0 °F 74% 30.06 in 10.0 mi NE 9.2 mph - N/A   Clear
11:31 PM 21.2 °F 10.9 °F 12.2 °F 68% 30.05 in 10.0 mi ENE 9.2 mph - N/A   Clear